User: anonymous
Location: Unspecified
(0.0000°N, 0.0000°E)
Time: 22:18:56
(UTC+00:00)
Language:

SICRAL 1B - Orbit

View from above orbital plane
View from above orbital plane
View from above satellite
View from above satellite

Ground track
Ground track

The orbit data is extracted from the following two-line orbital elements,

1 34810U 09020A   14235.29999946 0.00000000  00000-0  00000-0 0    02
2 34810   0.1038  91.1423 0003453  36.7809 323.2668  1.00270000    08
Epoch (UTC): 23 August 2014 07:11:59
Eccentricity: 0.0003453
inclination: 0.1038°
perigee height: 35772 km
apogee height: 35801 km
right ascension of ascending node: 91.1423°
argument of perigee: 36.7809°
revolutions per day: 1.00270000
mean anomaly at epoch: 323.2668°
orbit number at epoch: 0

The dashed part of the orbit path shows where the satellite is in the earth's shadow,  

DLR